IZ1RFL-3 Weather Reports


time (UTC)temp
F
wind
direction
speed
knots
gust
knots
rain 1hr
in
rain 24hr
in
rain mn
in
humidity
%
barometer
mb
20260506194607 61 0 0.0 0.0 0.00 0.00 0.00 66 1009.8
20260506193107 62 0 0.0 0.0 0.00 0.00 0.00 67 1009.4
20260506191607 61 0 0.0 0.0 0.00 0.00 0.00 68 1009.1
20260506190107 62 0 0.0 0.0 0.00 0.00 0.00 66 1009.0
20260506184607 63 0 0.0 0.0 0.00 0.00 0.00 67 1008.7
20260506183107 63 0 0.0 0.0 0.00 0.00 0.00 64 1008.4
20260506181607 64 0 0.0 0.0 0.00 0.00 0.00 62 1008.3
20260506180107 65 0 0.0 0.0 0.00 0.00 0.00 60 1008.1
20260506174607 66 0 0.0 0.0 0.00 0.00 0.00 59 1008.0
20260506173107 66 0 0.0 0.0 0.00 0.00 0.00 61 1007.7
20260506171607 65 0 0.0 0.0 0.00 0.00 0.00 60 1007.7
20260506170107 65 0 0.0 0.0 0.00 0.00 0.00 57 1007.3
20260506164607 65 0 0.0 0.0 0.00 0.00 0.00 56 1007.0
20260506163107 65 0 0.0 0.0 0.00 0.00 0.00 57 1007.0
20260506161607 66 0 0.0 0.0 0.00 0.00 0.00 54 1006.9
20260506160107 66 0 0.0 0.0 0.00 0.00 0.00 53 1007.0
20260506154607 66 0 0.0 0.0 0.00 0.00 0.00 56 1006.9
20260506153107 64 0 0.0 0.0 0.00 0.00 0.00 62 1006.8
20260506151607 66 0 0.0 0.0 0.00 0.00 0.00 55 1007.0
20260506150107 67 0 0.0 0.0 0.00 0.00 0.00 51 1006.9
20260506144607 68 0 0.0 0.0 0.00 0.00 0.00 48 1007.0
20260506143106 69 0 0.0 0.0 0.00 0.00 0.00 44 1006.9
20260506141606 69 0 0.0 0.0 0.00 0.00 0.00 45 1007.1
20260506140107 69 0 0.0 0.0 0.00 0.00 0.00 47 1007.2
20260506134606 69 0 0.0 0.0 0.00 0.00 0.00 47 1007.3
20260506133106 72 0 0.0 0.0 0.00 0.00 0.00 45 1007.5
20260506131606 71 0 0.0 0.0 0.00 0.00 0.00 51 1007.5
20260506130106 73 0 0.0 0.0 0.00 0.00 0.00 49 1007.7
20260506124606 73 0 0.0 0.0 0.00 0.00 0.00 47 1007.8
20260506123106 72 0 0.0 0.0 0.00 0.00 0.00 51 1007.8
20260506121606 72 0 0.0 0.0 0.00 0.00 0.00 49 1007.9
20260506120106 74 0 0.0 0.0 0.00 0.00 0.00 48 1008.0
20260506114607 73 0 0.0 0.0 0.00 0.00 0.00 48 1008.0
20260506113107 70 0 0.0 0.0 0.00 0.00 0.00 54 1008.1
20260506111606 69 0 0.0 0.0 0.00 0.00 0.00 54 1008.2
20260506110106 66 0 0.0 0.0 0.00 0.00 0.00 57 1008.4
20260506104606 69 0 0.0 0.0 0.00 0.00 0.00 53 1008.5
20260506103106 69 0 0.0 0.0 0.00 0.00 0.00 55 1008.7
20260506101606 64 0 0.0 0.0 0.00 0.00 0.00 61 1008.8
20260506100106 64 0 0.0 0.0 0.00 0.00 0.00 60 1008.9
20260506094606 65 0 0.0 0.0 0.00 0.00 0.00 60 1009.0
20260506093106 63 0 0.0 0.0 0.00 0.00 0.00 65 1009.1
20260506091606 64 0 0.0 0.0 0.00 0.00 0.00 60 1009.1
20260506090106 62 0 0.0 0.0 0.00 0.00 0.00 72 1009.2
20260506084606 62 0 0.0 0.0 0.00 0.00 0.00 68 1009.1
20260506083106 60 0 0.0 0.0 0.00 0.00 0.00 67 1009.2
20260506081606 61 0 0.0 0.0 0.00 0.00 0.00 75 1009.2
20260506080106 59 0 0.0 0.0 0.00 0.00 0.00 76 1009.3
20260506073106 59 0 0.0 0.0 0.00 0.00 0.00 79 1009.3
20260506071606 58 0 0.0 0.0 0.00 0.00 0.00 81 1009.1
20260506070106 58 0 0.0 0.0 0.00 0.00 0.00 82 1009.1
20260506061606 57 0 0.0 0.0 0.00 0.00 0.00 86 1009.4
20260506050106 55 0 0.0 0.0 0.00 0.00 0.00 89 1009.7
20260506044606 54 0 0.0 0.0 0.00 0.00 0.00 89 1009.9
20260506043106 54 0 0.0 0.0 0.00 0.00 0.00 89 1010.0
20260506041606 54 0 0.0 0.0 0.00 0.00 0.00 88 1010.0
20260506040106 55 0 0.0 0.0 0.00 0.00 0.00 88 1010.4
20260506034606 55 0 0.0 0.0 0.00 0.00 0.00 88 1010.2
20260506033106 55 0 0.0 0.0 0.00 0.00 0.00 87 1010.6
20260506031606 55 0 0.0 0.0 0.00 0.00 0.00 86 1010.6
20260506030106 55 0 0.0 0.0 0.00 0.00 0.00 87 1010.6
20260506024606 55 0 0.0 0.0 0.00 0.00 0.00 87 1011.0
20260506023106 55 0 0.0 0.0 0.00 0.00 0.00 87 1011.0
20260506021606 55 0 0.0 0.0 0.00 0.00 0.00 88 1011.3
20260506020106 54 0 0.0 0.0 0.00 0.00 0.00 89 1011.3
20260506014606 54 0 0.0 0.0 0.00 0.00 0.00 89 1011.1
20260506013106 55 0 0.0 0.0 0.00 0.00 0.00 87 1011.1
20260506011606 55 0 0.0 0.0 0.00 0.00 0.00 87 1011.5
20260506010106 55 0 0.0 0.0 0.00 0.00 0.00 86 1011.8
20260506004606 55 0 0.0 0.0 0.00 0.00 0.00 86 1012.0
20260506003106 56 0 0.0 0.0 0.00 0.00 0.00 85 1012.3
20260506001606 56 0 0.0 0.0 0.00 0.00 0.00 85 1012.5
20260506000106 56 0 0.0 0.0 0.00 0.00 0.00 84 1012.9
20260505234606 56 0 0.0 0.0 0.00 0.00 0.00 84 1013.1
20260505233106 56 0 0.0 0.0 0.00 0.00 0.00 84 1013.1
20260505231606 56 0 0.0 0.0 0.00 0.00 0.00 84 1012.9
20260505230106 56 0 0.0 0.0 0.00 0.00 0.00 84 1012.8
20260505224606 56 0 0.0 0.0 0.00 0.00 0.00 82 1013.1
20260505223106 56 0 0.0 0.0 0.00 0.00 0.00 81 1013.3
20260505221606 56 0 0.0 0.0 0.00 0.00 0.00 81 1013.4
20260505220106 57 0 0.0 0.0 0.00 0.00 0.00 80 1013.3
20260505214606 56 0 0.0 0.0 0.00 0.00 0.00 81 1013.5
20260505213106 56 0 0.0 0.0 0.00 0.00 0.00 81 1013.8
20260505211606 56 0 0.0 0.0 0.00 0.00 0.00 81 1013.7
20260505210106 57 0 0.0 0.0 0.00 0.00 0.00 80 1013.8
20260505204606 57 0 0.0 0.0 0.00 0.00 0.00 78 1014.0
20260505203106 57 0 0.0 0.0 0.00 0.00 0.00 78 1014.0
20260505201606 57 0 0.0 0.0 0.00 0.00 0.00 79 1013.8
20260505200106 57 0 0.0 0.0 0.00 0.00 0.00 78 1013.9